Cairns, Australia

4:10 AM AEST on January 17, 2018 (GMT +1000)
Cairns International

Weather History for YBCS - May, 2013

Change the Weather History Date:

Friday, May 24, 2013

  Actual Average Record
Temperature  
Mean Temperature 72 °F -  
Max Temperature 75 °F 79 °F 84 °F (1998)
Min Temperature 66 °F 65 °F 57 °F (2001)
Cooling Degree Days 6    
Growing Degree Days 22 (Base 50)    
Moisture  
Dew Point 62 °F    
Average Humidity 69    
Maximum Humidity 88    
Minimum Humidity 46    
Precipitation  
Precipitation 0.00 in 0.08 in - ()
Sea Level Pressure  
Sea Level Pressure 29.93 in    
Wind  
Wind Speed 10 mph ()    
Max Wind Speed 17 mph    
Max Gust Speed -    
Visibility 7.2 miles    
Events Rain    
Averages and records for this station are not official NWS values.
T = Trace of Precipitation, MM = Missing Value Source: Averaged Metar Reports

Daily Weather History Graph

Daily Weather History Graph

Search for Another Location

Airport or City:

Trip Planner

Search our weather history database for the weather conditions in past years. The results will help you decide how hot, cold, wet, or windy it might be!

Date:

Astronomy

May. 24, 2013 Rise Set
Actual Time 6:36 AM AEST 5:51 PM AEST
Civil Twilight 6:13 AM AEST 6:14 PM AEST
Nautical Twilight 5:46 AM AEST 6:40 PM AEST
Astronomical Twilight 5:20 AM AEST 7:07 PM AEST
Moon 5:01 PM AEST (5/24) 5:14 AM AEST (5/24)
Length of Visible Light 12h 00m
Length of Day
11h 14m
Waxing Gibbous, 98% of the Moon is Illuminated
May 24
Waxing Gibbous
May 25
Full
Jun 1
Last Quarter
Jun 9
New
Jun 17
First Quarter

Hourly Weather History & Observations

Time (AEST) Temp. Dew Point Humidity Pressure Visibility Wind Dir Wind Speed Gust Speed Precip Events Conditions
12:00 AM 74 °F 69 °F 81% 29.89 in - South 9.2 mph - -  
12:00 AM 73.4 °F 69.8 °F 88% 29.89 in 6.2 mi South 9.2 mph - N/A   Mostly Cloudy
12:30 AM 73.4 °F 69.8 °F 88% 29.89 in 6.2 mi South 9.2 mph - N/A   Mostly Cloudy
1:00 AM 73 °F 69 °F 83% 29.88 in - South 9.2 mph - -  
1:00 AM 73.4 °F 69.8 °F 88% 29.86 in 6.2 mi South 9.2 mph - N/A Rain Light Rain Showers
1:30 AM 73.4 °F 68.0 °F 83% 29.86 in 6.2 mi South 8.1 mph - N/A   Mostly Cloudy
2:00 AM 73.4 °F 68.0 °F 83% 29.86 in 6.2 mi South 9.2 mph - N/A   Mostly Cloudy
2:30 AM 73.4 °F 68.0 °F 83% 29.86 in 6.2 mi South 9.2 mph - N/A   Mostly Cloudy
3:00 AM 73 °F 68 °F 79% 29.86 in - South 10.4 mph - -   Overcast
3:00 AM 73.4 °F 68.0 °F 83% 29.86 in 6.2 mi South 10.4 mph - N/A   Mostly Cloudy
3:30 AM 73.4 °F 68.0 °F 83% 29.86 in 6.2 mi South 12.7 mph - N/A   Mostly Cloudy
4:00 AM 72 °F 69 °F 86% 29.87 in - South 11.5 mph - -  
4:00 AM 71.6 °F 68.0 °F 88% 29.86 in 6.2 mi South 11.5 mph - N/A   Mostly Cloudy
4:30 AM 71.6 °F 68.0 °F 88% 29.86 in 6.2 mi South 9.2 mph - N/A Rain Light Rain Showers
5:00 AM 73.4 °F 68.0 °F 83% 29.86 in 6.2 mi South 9.2 mph - N/A Rain Light Rain Showers
5:30 AM 73.4 °F 68.0 °F 83% 29.89 in 6.2 mi South 9.2 mph - N/A   Mostly Cloudy
6:00 AM 73 °F 67 °F 78% 29.90 in 19 mi South 8.1 mph - -   Partly Cloudy
6:00 AM 73.4 °F 68.0 °F 83% 29.89 in 6.2 mi South 8.1 mph - N/A   Mostly Cloudy
6:30 AM 73.4 °F 68.0 °F 83% 29.89 in 6.2 mi South 10.4 mph - N/A   Mostly Cloudy
7:00 AM 73 °F 67 °F 75% 29.93 in - South 8.1 mph - -  
7:00 AM 73.4 °F 66.2 °F 78% 29.92 in 6.2 mi South 8.1 mph - N/A   Mostly Cloudy
7:30 AM 73.4 °F 66.2 °F 78% 29.92 in 6.2 mi South 10.4 mph - N/A   Mostly Cloudy
8:00 AM 73.4 °F 66.2 °F 78% 29.92 in 6.2 mi South 13.8 mph - N/A   Mostly Cloudy
8:30 AM 73.4 °F 62.6 °F 69% 29.95 in 6.2 mi South 13.8 mph - N/A   Mostly Cloudy
9:00 AM 73 °F 62 °F 60% 29.97 in 19 mi South 11.5 mph - -   Partly Cloudy
9:00 AM 73.4 °F 62.6 °F 69% 29.95 in 6.2 mi South 11.5 mph - N/A   Mostly Cloudy
9:30 AM 73.4 °F 60.8 °F 65% 29.95 in 6.2 mi South 12.7 mph - N/A   Mostly Cloudy
10:00 AM 74 °F 60 °F 53% 29.98 in - SSE 13.8 mph - -  
10:00 AM 73.4 °F 60.8 °F 65% 29.98 in 6.2 mi SSE 13.8 mph - N/A   Mostly Cloudy
10:30 AM 73.4 °F 60.8 °F 65% 29.98 in 6.2 mi South 12.7 mph - N/A   Mostly Cloudy
11:00 AM 75.2 °F 62.6 °F 65% 29.95 in 6.2 mi SSE 15.0 mph - N/A   Mostly Cloudy
11:30 AM 75.2 °F 62.6 °F 65% 29.95 in 6.2 mi SSE 15.0 mph - N/A   Mostly Cloudy
12:00 PM 73 °F 58 °F 50% 29.96 in 19 mi SE 17.3 mph - -   Partly Cloudy
12:00 PM 73.4 °F 59.0 °F 61% 29.95 in 6.2 mi SE 17.3 mph - N/A   Overcast
12:30 PM 73.4 °F 59.0 °F 61% 29.95 in 6.2 mi SE 15.0 mph - N/A   Overcast
1:00 PM 74 °F 59 °F 49% 29.94 in - SE 10.4 mph - -  
1:00 PM 75.2 °F 59.0 °F 57% 29.92 in 6.2 mi SE 10.4 mph - N/A   Mostly Cloudy
1:30 PM 75.2 °F 57.2 °F 53% 29.92 in 6.2 mi SE 12.7 mph - N/A   Mostly Cloudy
2:00 PM 75.2 °F 57.2 °F 53% 29.92 in 6.2 mi SE 12.7 mph - N/A   Mostly Cloudy
2:30 PM 73.4 °F 59.0 °F 61% 29.89 in 6.2 mi SSE 9.2 mph - N/A   Mostly Cloudy
3:00 PM 74 °F 58 °F 46% 29.91 in 19 mi SE 10.4 mph - -   Partly Cloudy
3:00 PM 73.4 °F 57.2 °F 57% 29.89 in 6.2 mi SE 10.4 mph - N/A   Mostly Cloudy
3:30 PM 73.4 °F 59.0 °F 61% 29.89 in 6.2 mi SSE 9.2 mph - N/A   Mostly Cloudy
4:00 PM 73 °F 58 °F 50% 29.91 in - SE 11.5 mph - -  
4:00 PM 73.4 °F 59.0 °F 61% 29.89 in 6.2 mi SE 11.5 mph - N/A   Scattered Clouds
4:30 PM 71.6 °F 59.0 °F 64% 29.89 in 6.2 mi SE 10.4 mph - N/A   Mostly Cloudy
5:00 PM 71.6 °F 59.0 °F 64% 29.92 in 6.2 mi South 9.2 mph - N/A   Mostly Cloudy
5:30 PM 71.6 °F 57.2 °F 60% 29.92 in 6.2 mi South 12.7 mph - N/A   Mostly Cloudy
6:00 PM 70 °F 58 °F 58% 29.94 in - SSE 10.4 mph - -  
6:00 PM 69.8 °F 59.0 °F 68% 29.92 in 6.2 mi SSE 10.4 mph - N/A   Mostly Cloudy
6:30 PM 69.8 °F 59.0 °F 68% 29.95 in 6.2 mi South 8.1 mph - N/A   Scattered Clouds
7:00 PM 69 °F 58 °F 60% 29.97 in - South 6.9 mph - -  
7:00 PM 69.8 °F 59.0 °F 68% 29.95 in - South 6.9 mph - N/A   Clear
7:30 PM 68.0 °F 59.0 °F 73% 29.98 in 6.2 mi South 8.1 mph - N/A   Scattered Clouds
8:00 PM 68.0 °F 59.0 °F 73% 29.98 in 6.2 mi South 9.2 mph - N/A   Scattered Clouds
8:30 PM 68.0 °F 59.0 °F 73% 29.98 in 6.2 mi South 9.2 mph - N/A   Scattered Clouds
9:00 PM 69 °F 58 °F 58% 30.00 in - South 9.2 mph - -   Overcast
9:00 PM 69.8 °F 57.2 °F 64% 29.98 in 6.2 mi South 9.2 mph - N/A   Scattered Clouds
9:30 PM 69.8 °F 57.2 °F 64% 29.98 in 6.2 mi South 8.1 mph - N/A   Mostly Cloudy
10:00 PM 69 °F 57 °F 57% 30.01 in - South 9.2 mph - -  
10:00 PM 69.8 °F 57.2 °F 64% 29.98 in 6.2 mi South 9.2 mph - N/A   Mostly Cloudy
10:30 PM 68.0 °F 57.2 °F 68% 29.98 in 6.2 mi South 8.1 mph - N/A   Scattered Clouds
11:00 PM 68.0 °F 57.2 °F 68% 30.01 in 6.2 mi South 6.9 mph - N/A   Scattered Clouds
11:30 PM 66.2 °F 57.2 °F 73% 30.01 in 6.2 mi South 6.9 mph - N/A   Scattered Clouds